This is the latest recevied weather packets stored in our database for station/object N5SNT-2. If no packets are shown the sender has not sent any weather packets the latest 10 day(s).
| Time | Temp. | Humidity | Pressure | Rain* | Wind** | Luminosity | Snow |
|---|---|---|---|---|---|---|---|
| 1778007144 | 26.67° C | 79% | 1010 hPa | 0 mm | - | 409 W/m² | - |
| 1778006844 | 26.11° C | 80% | 1010 hPa | 0 mm | - | 279 W/m² | - |
| 1778006544 | 26.67° C | 80% | 1010 hPa | 0 mm | - | 368 W/m² | - |
| 1778006244 | 25.56° C | 81% | 1010 hPa | 0 mm | - | 501 W/m² | - |
| 1778005945 | 25.56° C | 81% | 1010 hPa | 0 mm | - | 325 W/m² | - |
| 1778005645 | 25.56° C | 81% | 1010 hPa | 0 mm | - | 336 W/m² | - |
| 1778005344 | 25.56° C | 82% | 1010 hPa | 0 mm | - | 238 W/m² | - |
| 1778005046 | 25.56° C | 82% | 1010 hPa | 0 mm | - | 278 W/m² | - |
| 1778004744 | 25.56° C | 82% | 1010 hPa | 0 mm | - | 322 W/m² | - |
| 1778004443 | 25.56° C | 82% | 1010 hPa | 0 mm | - | 365 W/m² | - |
| 1778004143 | 25° C | 82% | 1010 hPa | 0 mm | - | 408 W/m² | - |
| 1778003844 | 25.56° C | 82% | 1010 hPa | 0 mm | - | 289 W/m² | - |
| 1778003544 | 25.56° C | 83% | 1010 hPa | 0 mm | - | 343 W/m² | - |
| 1778003243 | 25° C | 84% | 1010 hPa | 0 mm | - | 349 W/m² | - |
| 1778002945 | 25° C | 84% | 1010 hPa | 0 mm | - | 294 W/m² | - |
| 1778002647 | 25° C | 84% | 1011 hPa | 0 mm | - | 272 W/m² | - |
| 1778002344 | 24.44° C | 85% | 1011 hPa | 0 mm | - | 364 W/m² | - |
| 1778002044 | 24.44° C | 85% | 1011 hPa | 0 mm | - | 293 W/m² | - |
| 1778001748 | 24.44° C | 86% | 1011 hPa | 0 mm | - | 226 W/m² | - |
| 1778001444 | 25° C | 86% | 1011 hPa | 0 mm | - | 199 W/m² | - |
| 1778001144 | 24.44° C | 86% | 1011 hPa | 0 mm | - | 267 W/m² | - |
| 1778000844 | 24.44° C | 86% | 1011 hPa | 0 mm | - | 302 W/m² | - |
| 1778000544 | 23.89° C | 86% | 1011 hPa | 0 mm | - | 348 W/m² | - |
| 1778000244 | 23.89° C | 87% | 1011 hPa | 0 mm | - | 200 W/m² | - |
| 1777999944 | 23.89° C | 88% | 1011 hPa | 0 mm | - | 179 W/m² | - |
* Rain latest hour (hover to see other rain measurements)
** Current wind speed in m/s (hover to see current wind gust speed)